User: anonymous   Login
Location: Unspecified
(0.0000°N, 0.0000°E)
Time: 01:30:26
(UTC+00:00)
Language:

Courier 1B Rocket - Orbit

View from above orbital plane
View from above orbital plane
View from above satellite
View from above satellite

Ground track
Ground track

The orbit data is extracted from the following two-line orbital elements,

1 00059U 60013B   14328.78937371  .00000128  00000-0  51487-4 0  9953
2 00059 028.2473 213.9601 0189456 154.5692 206.4313 13.52906781671778
Epoch (UTC): 24 November 2014 18:56:41
Eccentricity: 0.0189456
inclination: 28.2473°
perigee height: 920 km
apogee height: 1202 km
right ascension of ascending node: 213.9601°
argument of perigee: 154.5692°
revolutions per day: 13.52906781
mean anomaly at epoch: 206.4313°
orbit number at epoch: 67177

The dashed part of the orbit path shows where the satellite is in the earth's shadow,  

DLR